sat.trackr.live / text

‹ back to catalog

QIANFAN-232

NORAD 69861 · 2026-155P

PAYLOAD ACTIVE UNKNOWN

§ Identity

Operator
Country
PRC
Launch date
2026-07-05
Launch site
WSC
Launch vehicle
Mass (kg)
RCS (m²)

External: N2YO · Heavens-Above · Gunter

§ Orbital elements

Epoch: 2026-09-20T03:21:26.788032Z

Period
106.63 min
Inclination
89.0082°
Eccentricity
0.0026228
Mean motion
13.50451866 rev/d
Perigee alt
1,051.1 km
Apogee alt
1,090.1 km
Semi-major
7,448.7 km
B*
8.7788e-5
RAAN
53.7276°
Arg perigee
11.4159°
Mean anomaly
348.7581°
Rev number
1,069

§ Raw data

QIANFAN-2321 69861U 26155P   26263.13989338  .00000068  00000+0  87788-4 0  99972 69861  89.0082  53.7276 0026228  11.4159 348.7581 13.50451866 10691

JSON: /api/v1/satellites/69861 · /tle

For live sub-satellite position, see the globe view (requires WebGL).

§ Visibility from observer

Set your observer location to see the next 7 days of passes ≥ 10°. The values pass through the URL so the page stays shareable.

No JS? Fill the form by hand. The geolocation button needs JavaScript.